Skip Page Navigation
NASA JPL Caltech
NASA Logo - Jet Propulsion Laboratory + View the NASA Portal
+ Center for Near-Earth Object Studies
JPL Home Earth Solar System Stars & Galaxies Technology
JPL Solar System Dynamics
BODIES ORBITS EPHEMERIDES TOOLS PHYSICAL DATA DISCOVERY FAQ SITE MAP
JPL Small-Body Database Browser
Search: [ help ]  
192114 (2006 CR66)
Classification: Main-belt Asteroid          SPK-ID: 2192114
Ephemeris | Orbit Diagram | Orbital Elements | Mission Design | Physical Parameters | Discovery Circumstances | Close-Approach Data ]

[ hide orbit diagram ]

For accurate long-term ephemerides, please instead use our Horizons system.This orbit viewer was implemented using two-body methods, and hence should not be used for determining accurate long-term trajectories (over several years or decades) or planetary encounter circumstances.


Orbital Elements at Epoch 2459200.5 (2020-Dec-17.0) TDB
Reference: JPL 30 (heliocentric ecliptic J2000)
 Element Value Uncertainty (1-sigma)   Units 
e .02503432438954973 4.4692e-08  
a 2.963354691364978 2.1657e-08 au
q 2.889169108740053 1.3774e-07 au
i 3.829120259103619 4.301e-06 deg
node 202.3159928565648 7.1494e-05 deg
peri 276.9020290654058 0.00011593 deg
M 5.202627746281681 8.9677e-05 deg
tp 2459173.572617874361
(2020-Nov-20.07261787)
0.00046416 TDB
period 1863.261804990445
5.10
2.0426e-05
5.592e-08
d
yr
n .193209563484744 2.118e-09 deg/d
Q 3.037540273989903 2.2199e-08 au
  Orbit Determination Parameters
   # obs. used (total)      572  
   data-arc span      10040 days (27.49 yr)  
   first obs. used      1993-09-22  
   last obs. used      2021-03-19  
   planetary ephem.      DE441  
   SB-pert. ephem.      SB441-N16  
   condition code      0  
   norm. resid. RMS      .56347  
   source      ORB  
   producer      Otto Matic  
   solution date      2021-May-04 10:19:39  

Additional Information
 Earth MOID = 1.90813 au 
 Jupiter MOID = 1.96969 au 
 T_jup = 3.261 
[ show covariance matrix ]

Ephemeris | Orbit Diagram | Orbital Elements | Mission Design | Physical Parameters | Discovery Circumstances | Close-Approach Data ]

Physical Parameter Table
Parameter Symbol Value Units Sigma Reference Notes
absolute magnitude H 15.45   n/a MPCxxxxx  

192114 (2006 CR66)          Discovered 2006-Feb-02 by Spacewatch at Kitt Peak
Reference: 20080917/Numbers.arcLast Updated: 2008-09-19

[ show close-approach data ]
Ephemeris | Orbit Diagram | Orbital Elements | Mission Design | Physical Parameters | Discovery Circumstances | Close-Approach Data ]
ABOUT SSD CREDITS/AWARDS PRIVACY/COPYRIGHT GLOSSARY LINKS
FirstGov 2021-Jun-19 17:17 UT
(server date/time)  
NASA Home Page
Site Manager:   Ryan S. Park
Webmaster  Alan B. Chamberlin